This is the latest recevied weather packets stored in our database for station/object KO6MEZ-13. If no packets are shown the sender has not sent any weather packets the latest 1 day(s).
| Time | Temp. | Humidity | Pressure | Rain* | Wind** | Luminosity | Snow |
|---|---|---|---|---|---|---|---|
| 1778093826 | 19.44° C | 68% | 1018.7 hPa | 0 mm | - | 1096 W/m² | - |
| 1778093526 | 18.89° C | 67% | 1018.7 hPa | 0 mm | - | 1008 W/m² | - |
| 1778092925 | 18.89° C | 68% | 1018.7 hPa | 0 mm | - | 318 W/m² | - |
| 1778092626 | 18.89° C | 65% | 1018.7 hPa | 0 mm | - | 945 W/m² | - |
| 1778091425 | 18.33° C | 69% | 1018.9 hPa | 0 mm | - | 877 W/m² | - |
| 1778091125 | 18.33° C | 71% | 1018.9 hPa | 0 mm | - | 872 W/m² | - |
| 1778090653 | 18.89° C | 68% | 1018.9 hPa | 0 mm | - | 776 W/m² | - |
| 1778090354 | 18.33° C | 70% | 1018.9 hPa | 0 mm | - | 874 W/m² | - |
| 1778090053 | 18.33° C | 69% | 1018.7 hPa | 0 mm | - | 806 W/m² | - |
| 1778089754 | 17.78° C | 71% | 1018.9 hPa | 0 mm | - | 790 W/m² | - |
| 1778088853 | 17.22° C | 75% | 1018.9 hPa | 0 mm | - | 771 W/m² | - |
| 1778088552 | 17.22° C | 74% | 1018.9 hPa | 0 mm | - | 449 W/m² | - |
| 1778085725 | 15° C | 75% | 1018.6 hPa | 0 mm | - | 200 W/m² | - |
| 1778083926 | 15° C | 80% | 1018.6 hPa | 0 mm | - | 85 W/m² | - |
| 1778081953 | 13.89° C | 85% | 1018.7 hPa | 0 mm | - | 171 W/m² | - |
| 1778081052 | 13.33° C | 86% | 1018.7 hPa | 0 mm | - | 142 W/m² | - |
| 1778080452 | 13.33° C | 88% | 1018.7 hPa | 0 mm | - | 128 W/m² | - |
| 1778079425 | 12.78° C | 89% | 1018.7 hPa | 0 mm | - | 101 W/m² | - |
| 1778078953 | 12.78° C | 90% | 1018.6 hPa | 0 mm | - | 92 W/m² | - |
| 1778077626 | 12.22° C | 92% | 1018.5 hPa | 0 mm | - | 70 W/m² | - |
| 1778075825 | 11.67° C | 93% | 1018.3 hPa | 0 mm | - | 30 W/m² | - |
| 1778074926 | 11.67° C | 93% | 1018.1 hPa | 0 mm | - | 18 W/m² | - |
| 1778073725 | 11.67° C | 93% | 1018.1 hPa | 0 mm | - | 8 W/m² | - |
| 1778072226 | 11.67° C | 92% | 1017.9 hPa | 0 mm | - | 0 W/m² | - |
| 1778071926 | 11.67° C | 92% | 1017.9 hPa | 0 mm | - | 0 W/m² | - |
* Rain latest hour (hover to see other rain measurements)
** Current wind speed in m/s (hover to see current wind gust speed)